Regional Weather Roundup
Issued by NWS

Home | Current Version | Previous Version | Text Only | Print | Product List | Glossary Off
Versions: 1 2 3 4 5 6 7 8 9 10 11 12 13 14 15 16 17 18 19 20 21 22 23 24 25 26 27 28 29 30 31 32 33 34 35 36 37 38 39 40 41 42 43 44 45 46 47 48 49 50

293
ASUS43 KDMX 280508
RWRIA

WEATHER ROUNDUP FOR IOWA
NATIONAL WEATHER SERVICE DES MOINES IA
1200 AM CDT SAT MAY 28 2016

NOTE: "FAIR" INDICATES FEW OR NO CLOUDS BELOW 12,000 FEET WITH NO
SIGNIFICANT WEATHER AND/OR OBSTRUCTIONS TO VISIBILITY.

* - THESE STATIONS ARE NOT NWS STATIONS...THUS NOT UNDER NWS
QUALITY CONTROL.  THEY ALSO DO NOT REPORT WEATHER SUCH
AS PRECIPITATION OR FOG.

IAZ001>003-012>014-020>022-031>034-043>046-280600-
   NORTHWEST IOWA

CITY           SKY/WX    TMP DP  RH WIND       PRES   REMARKS
CARROLL *      CLOUDY    68  64  88 S9        29.76S
CHEROKEE *     LGT RAIN  68  64  88 SW3       29.74S
DENISON *      CLOUDY    66  64  94 S12       29.74R
LE MARS *      CLOUDY    70  61  73 SE9       29.74R
ORANGE CITY *  CLEAR     70  61  73 NE5       29.74S
SHELDON *      PTCLDY    68  59  73 NE6       29.73S
SIOUX CITY     TSTM      64  61  90 NW5       29.75R FOG
SPENCER        CLOUDY    66  59  78 E8        29.75R
STORM LAKE *   MOCLDY    66  63  88 S12       29.76S
$$

IAZ055>058-069>071-079>083-090>094-280600-
   SOUTHWEST IOWA

CITY           SKY/WX    TMP DP  RH WIND       PRES   REMARKS
ATLANTIC *     CLOUDY    66  61  82 SW8       29.76F
AUDUBON *      DRIZZLE   66  63  88 S5        29.77F
CLARINDA *       N/A     63  59  88 MISG      29.79R FOG
COUNCIL BLFS * DRIZZLE   61  61 100 W7        29.75F
CRESTON *      CLOUDY    66  64  94 E6        29.79S
HARLAN  *      CLOUDY    66  63  88 SE13      29.78F
LAMONI         CLOUDY    64  64 100 CALM      29.78R
RED OAK *      CLOUDY    63  59  88 W10       29.76F
SHENANDOAH *   MOCLDY    63  61  94 CALM      29.76F
$$

IAZ047>049-059>061-072>074-084-280600-
   CENTRAL IOWA

CITY           SKY/WX    TMP DP  RH WIND       PRES   REMARKS
AMES           LGT RAIN  67  65  93 CALM      29.76F
ANKENY *       CLOUDY    66  66 100 CALM      29.76R FOG
BOONE *          N/A     66  64  94 S6        29.77R FOG
CHARITON *     RAIN      64  63  94 CALM      29.77S
DES MOINES     LGT RAIN  68  64  87 W3        29.76S
GRINNELL*      LGT RAIN  66  64  94 SE7       29.77F
KNOXVILLE *    LGT RAIN  68  64  88 S5        29.75S
MARSHALLTOWN   LGT RAIN  67  65  93 E3        29.75F
NEWTON *       CLOUDY    68  68 100 E5        29.75F
PELLA *        LGT RAIN  66  63  88 E3        29.76F
PERRY *        RAIN      68  66  94 S8        29.77R
$$

IAZ004>006-015-016-023>025-035-036-280600-
   NORTH CENTRAL IOWA

CITY           SKY/WX    TMP DP  RH WIND       PRES   REMARKS
ALGONA *       MOCLDY    68  63  83 SE6       29.77R
CLARION *      CLOUDY    68  64  88 S8        29.77R
ESTHERVILLE    CLOUDY    66  61  84 E9        29.76R
FORT DODGE *   CLOUDY    68  61  77 SE6       29.78S
MASON CITY     CLOUDY    63  62  97 W3        29.77S
FOREST CITY *  CLEAR     61  61 100 CALM      29.76S
WEBSTER CITY * MOCLDY    66  64  94 SE12      29.75F
IOWA FALLS *   LGT RAIN  68  64  88 CALM      29.78S
$$

IAZ007>011-017>019-026>030-037>042-050>054-066-280600-
   NORTHEAST IOWA

CITY           SKY/WX    TMP DP  RH WIND       PRES   REMARKS
CEDAR RAPIDS   RAIN      64  64 100 SW5       29.75F FOG
CHARLES CITY * PTCLDY    64  64 100 SE6       29.77R
CLINTON *      LGT RAIN  72  68  87 SE14      29.78S
DECORAH *      CLEAR     66  66 100 CALM      29.76R FOG
DUBUQUE        MOCLDY    70  67  90 S9        29.77F
MONTICELLO *   LGT RAIN  64  63  94 SW5       29.76F
OELWEIN *      MOCLDY    68  68 100 SE9       29.78R
WATERLOO       CLOUDY    67  64  90 CALM      29.75S
$$

IAZ064-065-067-068-078-280600-
   EAST CENTRAL IOWA

CITY           SKY/WX    TMP DP  RH WIND       PRES   REMARKS
DAVENPORT      CLOUDY    72  67  84 SE18      29.76F
IOWA CITY      RAIN      65  64  97 CALM      29.77S FOG
MT. PLEASANT * DRIZZLE   66  66 100 N9        29.77F
MUSCATINE *    RAIN      64  63  94 W12       29.77R
QUAD CITIES    RAIN      71  66  84 S16G29    29.76S
$$

IAZ062-063-075>077-085>089-095>099-280600-
   SOUTHEAST IOWA

CITY           SKY/WX    TMP DP  RH WIND       PRES   REMARKS
BURLINGTON     LGT RAIN  67  67 100 SW8       29.76S
FAIRFIELD *      N/A    N/A N/A N/A MISG        N/A
FORT MADISON * RAIN      66  66 100 S3        29.78S
KEOKUK *       CLOUDY    68  68 100 CALM      29.76S
OSKALOOSA *    RAIN      64  61  88 CALM      29.76F
OTTUMWA        LGT RAIN  65  64  97 NE6       29.74F
WASHINGTON *   RAIN      63 N/A N/A NE7       29.79S
$$

ABBREVIATIONS USED IN REMARKS
   TC - TEMPERATURES IN CELSIUS
  WCI - WIND CHILL INDEX
   HX - HEAT INDEX
  VSB - VISIBILITY
$$





USA.gov is the U.S. government's official web portal to all federal, state and local government web resources and services.